Find Globalstar M070

NORAD ID: 32264 Int'l Des: 2007-048 Owner: GLOB Country: US Constellation: globalstar operational
LEOCIRCULAR

Live-Position

3D-Globus wird geladen...

Über Globalstar M070

Beschreibung wird geladen...

Nächste Überflüge

Passes for default location (London). Set your location on the main map for personalized predictions.

Höhenverlauf

Loading altitude history...

Zweizeiliger Elementsatz

1 32264U 07048B 26131.48499148 -.00000095 00000-0 50123-4 0 9996
2 32264 51.9740 208.3591 0000642 149.7668 223.5489 12.62334186855137
Epoch: 11. Mai 2026 • Age: 16 hours

Aktueller Status

Höhe 1413.9 km
Geschwindigkeit 7.15 km/s
Subsatellitenpunkt -2.14°S, 102.01°E
Startdatum 20. Okt. 2007
Alter 18.5 years
Typ communications

Technische Details

Klassifizierung Payload
Masse 450.00 kg
Trockenmasse 380.00 kg
Gesamtmasse 450.00 kg
Länge 1.50 m
Durchmesser 0.60 m
Spannweite 12.00 m
Form Box + 2 Pan
Hersteller LOR
Bus-Typ LS-400
Phasenstatus In Orbit
Besitzer/Staat GLOB/US

Most Searched